SCP
0 -0 0 0 0 0 -0 -0 -0 -0 -0 -0 0 0 0 -0 -0 0 -0 -0 -0 -0 -0 -0 -0 -0 -0 -0 -0 -0 -0 -0 0 0 0 0 0 0 0 0 0 0 0 0 0 0 0 0 0
-0 0 0 0 0 -0 -0 -0 0 -0 -0 -0 -0 0 0 -0 -0 -0 -0 0 0 -0 -0 -0 -0 -0 -0 0 -0 -0 -0 -0 0 0 0 0 0 0 0 0 0 0 0 0 0 0 0 0 0
-0 -0 0 0 0 0 -0 -0 0 -0 -0 -0 0 -0 0 0 0 0 -0 -0 0 -0 -0 -0 -0 -0 -0 -0 -0 0 0 0 -0 -0 0 0 0 0 0 0 0 0 0 0 0 0 0 0 0
0 0 0 0 0 0 0 0 -0 -0 -0 0 0 -0 0 -0 0 -0 -0 -0 0 -0 -0 -0 -0 0 -0 -0 -0 -0 0 -0 -0 -0 0 0 0 0 0 0 0 0 0 0 0 0 0 0 0
0 0 0 0 0 0 -0 0 0 0 -0 -0 0 0 0 -0 0 -0 -0 -0 -0 0 -0 -0 0 0 0 0 0 0 0 -0 0 -0 0 0 0 0 0 0 0 0 0 0 0 0 0 0 0
-0 0 -0 -0 0 -0 -0 -0 0 -0 -0 -0 -0 0 0 0 -0 0 0 -0 0 0 -0 0 0 0 0 0 -0 0 0 -0 0 0 0 0 -0 0 0 0 0 0 0 0 0 0 0 0 0
0 -0 0 0 -0 0 0 -0 -0 -0 -0 -0 -0 0 0 0 0 -0 -0 0 -0 -0 -0 -0 0 0 0 0 -0 0 -0 -0 -0 -0 -0 0 0 0 0 0 0 0 0 0 0 0 0 0 0
0 0 0 0 -0 0 0 -0 0 -0 -0 -0 -0 0 -0 0 0 -0 -0 -0 -0 -0 -0 -0 -0 -0 -0 -0 0 0 -0 0 -0 0 -0 -0 0 0 0 0 0 0 0 0 0 0 0 0 0
-0 -0 0 0 -0 0 -0 -0 -0 0 -0 0 0 0 0 0 0 0 -0 -0 -0 -0 -0 -0 -0 -0 -0 -0 0 0 0 -0 -0 0 -0 0 0 0 0 0 0 0 0 -0 -0 0 0 0 0
-0 0 0 0 0 -0 0 -0 0 0 -0 -0 -0 -0 -0 -0 -0 0 0 0 -0 -0 -0 -0 -0 -0 -0 -0 -0 -0 -0 0 0 0 0 0 0 0 0 0 0 0 0 0 0 0 0 0 0
-0 0 0 -0 -0 -0 -0 0 -0 -0 -0 -0 -0 -0 -0 -0 0 -0 -0 -0 0 -0 -0 -0 -0 -0 -0 -0 -0 -0 0 0 0 0 0 0 0 0 0 0 0 0 0 0 0 0 0 0 1
0 0 0 -0 -0 -0 -0 -0 -0 -0 0 -0 -0 -0 -0 -0 -0 0 -0 -0 0 0 -0 -0 -0 -0 -0 -0 -0 -0 0 0 0 0 0 0 0 0 0 0 0 0 0 0 0 0 0 0 0
0 0 0 0 -0 -0 -0 -0 0 -0 0 -0 -0 -0 -0 -0 -0 0 0 -0 -0 -0 0 -0 -0 -0 -0 -0 -0 -0 0 0 0 0 0 0 0 0 0 0 0 0 0 0 0 0 0 0 0
0 0 0 0 0 -0 -0 -0 0 0 0 -0 -0 -0 -0 -0 -0 0 0 0 0 -0 -0 -0 -0 -0 -0 -0 0 -0 -0 0 0 0 0 0 0 0 0 0 0 0 0 0 0 0 0 0 0
0 0 0 0 0 0 -0 0 -0 -0 -0 -0 -0 -0 -0 -0 -0 -0 -0 -0 0 0 -0 0 0 -0 -0 -0 0 -0 0 0 -0 0 0 0 0 0 0 0 0 0 0 0 0 0 0 0 0
0 0 0 0 0 0 0 0 -0 -0 -0 -0 -0 -0 -0 -0 -0 0 0 -0 0 0 0 0 0 -0 0 -0 -0 -0 -0 -0 -0 -0 -0 0 0 0 0 0 0 0 0 0 0 0 0 0 0
0 0 0 0 0 0 0 0 0 -0 -0 -0 -0 -0 -0 0 0 0 0 0 0 0 0 0 -0 -0 0 0 -0 0 0 0 0 0 -0 0 -0 0 0 0 0 0 0 0 0 0 0 0 0
0 0 0 0 0 0 0 0 0 0 -0 0 0 -0 -0 -0 0 0 0 0 0 0 -0 0 -0 -0 0 0 -0 -0 0 0 0 0 0 0 0 -0 0 0 0 0 0 0 0 0 0 0 0
0 0 0 0 0 0 0 0 -0 0 -0 0 -0 0 0 0 0 0 0 0 0 -0 -0 -0 -0 0 0 0 -0 -0 0 0 0 0 0 0 -0 -0 0 0 0 0 0 0 0 0 0 0 0
0 0 0 0 0 0 0 0 0 0 0 -0 -0 0 0 0 0 0 -0 0 0 -0 -0 -0 -0 -0 -0 -0 0 0 0 -0 0 0 0 0 -0 0 0 0 0 0 0 0 0 0 0 0 0
0 0 0 0 0 0 0 0 0 0 0 0 -0 0 0 0 0 0 0 0 0 0 -0 0 0 -0 -0 -0 0 0 0 0 0 -0 0 0 0 0 0 0 0 0 0 0 0 0 0 0 0
0 0 0 0 0 0 0 0 0 0 0 0 -0 0 0 0 0 0 0 0 0 0 -0 0 0 0 0 0 0 -0 -0 0 0 -0 -0 0 0 0 0 0 0 0 0 0 0 0 0 0 0
0 0 0 0 0 0 0 0 0 0 0 0 -0 0 0 0 0 0 0 0 0 0 0 0 0 0 0 -0 0 0 0 0 0 0 -0 -0 -0 0 0 0 0 0 0 0 0 0 0 0 0
0 0 0 0 0 0 0 0 0 -0 -0 -0 -0 -0 0 0 0 0 0 0 0 0 0 0 0 0 0 0 -0 -0 -0 0 0 0 -0 -0 0 0 -0 -0 -0 0 0 0 0 0 0 0 0
0 0 0 0 0 0 0 0 0 0 0 -0 -0 0 0 0 0 0 0 -0 0 0 0 0 0 0 0 0 -0 -0 -0 0 0 0 0 0 -0 0 -0 -0 -0 -0 0 0 0 0 0 0 0
0 0 0 0 0 0 0 0 0 0 0 0 0 -0 0 0 0 0 0 0 0 0 0 0 0 0 0 0 0 -0 0 -0 0 0 0 0 0 0 0 -0 -0 -0 -0 -0 0 0 0 0 0
0 0 0 0 0 0 0 0 0 0 0 0 0 0 0 0 0 0 0 0 0 0 0 0 0 0 0 0 0 0 0 0 0 -0 0 -0 -0 0 0 0 0 -0 -0 0 0 0 0 0 0
0 0 0 0 0 0 0 0 0 0 0 0 0 0 0 0 0 0 0 0 0 0 0 1 0 0 0 0 0 0 0 0 0 0 0 0 -0 0 0 0 0 0 0 0 0 0 0 0 0
0 0 0 0 0 0 0 0 0 0 0 0 0 0 0 0 0 0 0 0 0 0 0 0 0 0 0 0 0 0 0 0 0 0 0 0 0 0 0 0 0 0 0 0 0 0 0 0 0
0 0 0 0 0 0 0 0 0 0 0 0 0 0 0 0 0 0 0 0 0 0 0 0 0 0 0 0 0 0 0 0 0 0 0 0 0 0 0 0 0 0 0 0 0 0 0 0 0
Wind_Speed_500mb
13 9 4 5 1 2 1 6 6 22 18 20 49 10 9 16 5 6 43 43 43 39 38 35 33 32 32 33 31 31 33 33 33 30 29 31 34 34 33 33 32 32 34 39 40 42 42 43 42
13 4 3 6 4 4 4 8 13 17 35 53 19 30 16 8 12 46 51 46 40 41 40 37 33 31 30 30 29 29 30 30 30 30 29 29 33 35 35 34 33 33 38 40 41 43 44 41 42
11 1 7 4 2 2 5 7 21 22 57 57 14 26 10 6 34 66 53 54 46 44 39 34 30 27 27 28 27 26 26 26 27 30 29 29 33 35 36 35 35 38 42 43 40 37 32 30 30
9 6 5 4 4 6 15 23 41 39 39 15 41 21 20 27 40 47 61 51 47 42 37 32 29 26 26 24 26 26 26 26 28 31 29 29 28 31 31 33 34 38 37 36 35 35 34 37 29
13 5 3 4 6 2 5 36 39 16 24 30 18 18 24 28 42 59 56 51 46 41 36 33 29 29 25 27 25 30 28 26 31 33 30 30 28 29 29 31 32 34 36 35 32 29 28 31 31
3 6 4 7 7 11 11 34 22 31 42 42 41 34 15 43 52 53 49 47 41 38 37 32 29 26 25 25 27 29 25 26 29 32 29 31 27 28 30 33 33 34 37 37 32 29 24 26 30
4 5 11 6 18 19 14 27 27 36 36 26 44 14 34 53 50 52 47 43 40 37 34 32 30 26 25 28 28 30 28 30 29 28 34 33 31 29 30 33 33 35 38 37 33 29 28 27 28
11 5 13 12 17 10 16 12 26 45 27 42 53 12 28 61 60 54 49 43 39 35 31 30 30 29 30 28 29 30 28 29 28 32 33 31 33 32 34 34 35 36 38 38 33 26 21 23 23
11 7 1 5 15 7 24 23 22 27 62 28 4 51 69 65 58 50 48 42 37 33 31 29 28 30 31 32 31 30 29 28 29 32 36 37 38 38 36 37 38 40 39 39 37 28 20 17 12
8 6 18 15 12 22 23 5 24 31 40 41 58 51 67 64 58 51 53 46 42 38 34 32 31 30 31 32 34 37 34 32 31 35 38 41 39 39 43 43 42 40 40 37 34 30 23 12 3
10 7 12 15 22 45 33 21 25 49 24 66 69 72 72 65 59 51 47 42 42 38 39 37 35 35 34 36 36 32 36 35 35 40 44 42 42 45 44 40 35 34 33 27 21 16 12 10 5
4 20 7 2 33 25 34 48 22 36 24 55 74 74 74 70 62 54 52 47 46 41 39 41 39 40 42 39 39 37 35 36 39 41 41 42 43 42 36 33 26 27 30 24 19 17 13 14 14
10 7 9 3 36 37 30 32 25 40 52 61 71 74 75 71 59 51 47 45 41 40 44 43 41 40 36 35 38 37 37 38 40 39 41 44 42 30 30 25 26 29 25 19 25 24 15 11 10
5 15 18 15 23 21 21 24 32 33 61 75 75 73 79 71 59 52 50 49 43 39 37 41 38 32 30 37 37 38 37 34 34 38 39 40 29 23 26 23 22 22 18 12 15 15 11 9 16
27 10 13 10 9 10 34 10 26 48 67 73 70 74 67 68 62 55 49 48 41 38 35 34 30 29 31 32 33 38 37 36 31 32 30 27 26 23 21 19 16 18 19 20 12 13 10 1 6
9 9 7 8 14 20 8 7 16 48 51 65 66 63 68 69 66 55 51 45 40 36 30 32 29 34 28 32 31 34 36 34 28 28 26 24 21 22 18 16 15 20 17 12 8 7 3 5 2
12 3 4 5 14 18 6 4 10 37 47 40 54 59 67 60 58 57 54 48 39 33 31 34 30 33 30 32 33 32 32 30 22 26 31 23 24 20 15 14 12 14 12 10 12 9 3 2 6
7 5 8 7 11 8 13 4 8 38 55 56 21 58 67 69 63 60 58 54 44 34 32 38 31 30 29 29 34 33 33 29 28 26 29 24 27 20 16 18 16 12 11 11 8 6 1 4 6
1 4 6 8 7 7 11 8 19 26 43 39 33 36 57 73 74 68 63 55 45 35 31 36 39 30 29 27 38 30 32 30 28 29 29 28 30 25 25 19 16 14 9 12 10 3 11 3 2
7 4 7 8 5 7 7 8 3 4 18 56 57 18 46 53 67 73 69 60 48 39 35 33 27 34 33 24 27 24 28 28 27 25 26 31 31 31 29 24 19 17 12 11 7 3 6 5 5
5 8 10 10 16 18 22 2 8 4 20 47 56 28 14 53 76 74 70 63 52 43 36 30 28 32 35 27 31 28 27 24 26 31 25 23 29 32 28 25 23 19 16 15 12 6 5 2 3
6 16 17 24 8 9 3 2 11 8 10 43 67 52 17 47 73 77 72 66 54 44 38 30 33 30 35 31 31 27 24 23 22 24 23 22 28 30 33 28 26 21 18 22 17 7 6 4 6
16 10 15 12 9 11 1 9 9 21 19 30 50 65 32 14 62 85 79 71 55 44 41 34 41 37 37 36 26 27 23 22 22 24 24 26 30 25 24 31 25 17 15 23 19 9 5 8 9
16 17 20 12 6 3 16 12 8 25 28 34 50 52 44 9 47 60 70 74 63 52 50 41 47 45 41 45 33 25 26 26 29 28 26 29 29 23 24 34 24 18 16 25 21 15 7 3 8
10 10 7 7 3 10 10 9 5 19 22 39 54 76 64 24 21 41 57 71 73 60 54 48 48 51 46 51 41 31 27 25 24 27 26 29 30 26 28 30 25 22 20 24 23 18 14 10 5
18 18 11 11 10 6 2 7 6 9 23 29 44 56 56 37 14 26 32 62 73 67 56 54 49 52 50 50 40 33 26 32 26 23 28 31 26 23 24 25 25 25 29 24 27 25 23 20 14
9 8 12 13 2 7 7 6 10 17 21 35 37 37 38 46 24 30 35 46 70 75 67 57 49 48 49 51 41 32 25 25 25 30 26 26 29 27 26 22 21 24 28 31 28 27 25 26 24
16 13 5 7 11 7 3 6 10 17 22 24 24 32 27 27 24 32 50 59 54 76 71 66 52 46 50 54 45 36 31 26 19 32 28 29 26 26 26 21 20 20 24 28 30 27 28 26 27
8 4 12 11 5 10 6 7 7 9 19 21 27 29 26 28 24 32 46 54 70 71 71 66 49 47 51 54 45 39 35 32 27 32 32 27 25 22 26 26 29 31 26 27 25 25 25 28 26
1 2 6 10 5 7 9 2 17 22 20 32 31 33 26 24 19 24 22 66 59 62 74 58 46 45 52 50 46 41 39 37 36 37 35 29 24 25 16 16 18 26 28 29 23 22 21 23 23
Wind_Direction_500mb
130 142 167 6 13 20 63 159 139 112 152 147 153 141 145 105 153 182 144 150 158 150 145 145 141 140 137 136 133 130 132 131 126 114 116 114 113 115 115 116 115 116 119 117 116 115 120 117 114
154 162 26 17 50 76 316 128 136 143 149 147 131 109 57 83 116 137 145 151 155 147 145 141 144 146 143 141 144 140 135 134 131 129 119 115 115 117 113 115 117 122 128 126 123 116 116 114 110
152 69 16 39 53 353 122 100 111 124 142 145 105 89 66 78 135 140 148 151 153 149 145 143 143 142 144 145 150 151 147 140 136 132 128 124 121 123 117 114 119 127 128 126 119 113 117 127 121
163 45 14 51 284 12 128 125 120 114 118 140 113 82 74 147 135 149 147 149 151 146 144 143 141 141 136 138 135 141 142 143 136 138 134 128 126 126 123 120 121 133 136 129 120 111 100 102 122
152 160 190 216 209 89 116 139 139 131 120 133 116 96 100 147 142 143 145 149 151 146 146 146 143 142 142 143 138 138 137 139 142 142 135 134 134 130 126 126 124 130 139 135 122 109 106 106 110
246 177 218 148 182 143 130 138 118 96 108 105 107 112 106 144 144 147 149 150 151 147 147 144 140 137 139 143 138 137 134 139 142 143 139 142 142 134 121 122 127 128 140 140 128 115 105 104 108
3 28 345 210 121 116 133 129 129 122 116 116 130 101 134 152 147 148 152 153 150 148 145 141 138 140 139 143 136 133 134 136 135 142 143 143 142 134 125 125 127 134 144 143 131 120 109 106 99
84 74 1 348 130 105 122 103 143 120 106 127 119 137 152 157 153 154 155 155 153 148 142 141 141 138 134 132 135 135 132 135 136 139 143 142 136 132 131 128 128 133 142 146 141 127 125 114 101
169 110 118 274 127 62 99 121 137 118 128 131 137 148 149 155 154 154 158 160 158 153 146 142 136 139 136 135 133 132 127 131 133 141 143 142 135 133 128 123 121 122 129 139 148 150 147 122 98
166 146 177 220 133 151 169 139 134 129 135 106 119 140 154 157 156 158 164 165 165 155 151 144 143 141 137 136 131 128 125 124 126 139 140 137 134 131 127 122 122 125 129 133 138 145 157 153 49
183 198 180 200 169 165 167 153 146 143 136 144 147 152 162 162 164 157 157 154 157 148 149 146 146 144 139 138 136 139 126 119 125 129 135 138 136 134 133 127 123 128 129 130 135 141 164 185 203
154 241 180 263 193 169 169 154 153 137 157 154 160 165 164 169 171 164 159 152 152 152 151 149 148 144 143 137 138 132 135 127 125 132 136 137 137 131 132 128 124 126 124 118 108 103 115 99 74
235 193 154 43 145 164 150 161 132 157 166 159 162 167 171 174 173 169 162 156 153 154 154 150 145 145 149 153 146 140 134 124 127 134 139 140 137 132 132 128 124 138 127 103 113 107 112 89 72
216 153 119 126 122 122 104 128 160 177 171 156 161 169 177 179 178 172 173 169 165 162 160 158 153 160 152 150 146 149 141 139 134 138 135 138 139 146 149 131 123 134 136 125 122 126 112 80 59
94 75 92 100 111 107 128 118 164 157 156 159 167 171 177 185 183 184 176 175 173 167 160 160 166 167 175 160 155 159 148 145 140 144 148 152 150 149 143 141 120 134 134 137 138 143 145 151 63
77 77 149 173 161 151 89 154 193 167 168 166 172 173 184 186 189 189 185 179 176 167 166 164 177 186 173 169 171 164 160 158 165 173 158 161 159 159 150 139 119 141 138 128 125 173 179 156 132
2 174 221 286 202 154 90 119 213 182 170 185 168 178 184 180 193 192 188 183 174 168 164 171 162 156 167 173 172 170 173 171 173 168 169 184 181 166 165 155 150 149 141 125 123 121 106 244 81
147 150 225 223 195 150 116 177 193 164 175 185 152 173 182 184 188 196 192 186 173 167 166 169 160 162 160 173 184 192 180 186 190 172 184 181 188 189 178 170 163 165 165 154 132 105 115 100 344
229 232 290 51 146 119 141 142 182 183 176 191 189 142 174 186 191 198 196 190 178 168 162 177 171 174 172 166 170 172 182 188 192 193 200 196 203 202 192 190 198 201 191 177 176 91 128 105 54
198 312 72 51 175 121 117 125 148 172 170 181 210 169 181 178 186 196 196 189 187 173 163 172 175 178 175 171 169 168 184 191 189 196 201 204 201 203 202 209 206 200 191 199 184 147 142 68 67
215 202 175 142 116 64 121 59 172 236 162 178 199 206 178 183 183 189 191 188 187 184 178 186 182 178 179 180 179 170 174 181 191 191 188 187 196 201 208 209 206 200 202 200 200 156 163 95 12
263 201 202 152 148 161 255 136 247 186 181 179 197 208 187 187 193 188 189 191 192 195 190 196 187 189 190 184 186 184 183 191 191 191 178 193 192 199 208 206 194 208 207 197 194 174 146 21 36
232 234 225 128 100 110 352 92 277 158 198 193 187 202 216 180 197 190 193 193 193 198 200 201 191 195 198 197 194 194 215 212 190 175 188 187 173 189 202 192 198 203 200 182 190 189 132 44 46
117 70 49 53 66 14 184 174 210 189 190 189 190 206 213 185 193 202 199 195 195 200 204 202 197 199 206 204 201 199 207 203 196 188 180 179 182 189 188 195 202 202 199 190 198 203 188 140 82
112 85 39 50 15 224 163 135 325 200 176 191 183 200 204 195 180 192 202 202 201 199 207 208 204 205 208 207 209 205 201 213 205 206 195 189 191 194 197 197 204 211 206 202 211 218 219 214 205
183 161 151 168 190 202 184 218 331 63 105 154 187 194 195 217 252 200 205 210 207 206 209 207 207 209 212 208 210 209 214 221 222 205 204 203 202 204 201 203 210 211 214 219 228 233 235 227 226
192 160 194 109 112 111 169 136 118 103 95 102 112 146 186 221 240 227 236 212 210 217 213 210 208 209 215 211 213 214 217 208 224 205 205 208 207 210 210 210 205 211 218 224 231 235 236 234 232
157 169 99 29 151 167 239 205 161 154 133 131 116 136 150 183 232 254 237 208 226 224 217 214 208 210 213 214 217 215 213 212 216 209 217 208 207 215 216 224 232 225 223 219 225 230 235 238 238
349 111 53 111 113 145 155 238 337 154 136 130 134 139 157 174 195 196 212 217 225 226 218 217 206 211 212 214 220 225 218 213 208 208 213 216 224 224 232 244 250 245 246 227 222 225 237 243 243
282 58 124 129 174 74 115 313 332 133 140 127 129 132 154 193 192 219 195 189 199 212 216 211 204 210 212 212 224 231 236 230 225 217 220 228 232 233 240 246 236 236 240 227 228 222 231 243 244
Wind_Speed_850mb
13 9 4 5 1 2 1 6 6 22 18 20 49 10 9 16 5 6 43 43 43 39 38 35 33 32 32 33 31 31 33 33 33 30 29 31 34 34 33 33 32 32 34 39 40 42 42 43 42
13 4 3 6 4 4 4 8 13 17 35 53 19 30 16 8 12 46 51 46 40 41 40 37 33 31 30 30 29 29 30 30 30 30 29 29 33 35 35 34 33 33 38 40 41 43 44 41 42
11 1 7 4 2 2 5 7 21 22 57 57 14 26 10 6 34 66 53 54 46 44 39 34 30 27 27 28 27 26 26 26 27 30 29 29 33 35 36 35 35 38 42 43 40 37 32 30 30
9 6 5 4 4 6 15 23 41 39 39 15 41 21 20 27 40 47 61 51 47 42 37 32 29 26 26 24 26 26 26 26 28 31 29 29 28 31 31 33 34 38 37 36 35 35 34 37 29
13 5 3 4 6 2 5 36 39 16 24 30 18 18 24 28 42 59 56 51 46 41 36 33 29 29 25 27 25 30 28 26 31 33 30 30 28 29 29 31 32 34 36 35 32 29 28 31 31
3 6 4 7 7 11 11 34 22 31 42 42 41 34 15 43 52 53 49 47 41 38 37 32 29 26 25 25 27 29 25 26 29 32 29 31 27 28 30 33 33 34 37 37 32 29 24 26 30
4 5 11 6 18 19 14 27 27 36 36 26 44 14 34 53 50 52 47 43 40 37 34 32 30 26 25 28 28 30 28 30 29 28 34 33 31 29 30 33 33 35 38 37 33 29 28 27 28
11 5 13 12 17 10 16 12 26 45 27 42 53 12 28 61 60 54 49 43 39 35 31 30 30 29 30 28 29 30 28 29 28 32 33 31 33 32 34 34 35 36 38 38 33 26 21 23 23
11 7 1 5 15 7 24 23 22 27 62 28 4 51 69 65 58 50 48 42 37 33 31 29 28 30 31 32 31 30 29 28 29 32 36 37 38 38 36 37 38 40 39 39 37 28 20 17 12
8 6 18 15 12 22 23 5 24 31 40 41 58 51 67 64 58 51 53 46 42 38 34 32 31 30 31 32 34 37 34 32 31 35 38 41 39 39 43 43 42 40 40 37 34 30 23 12 3
10 7 12 15 22 45 33 21 25 49 24 66 69 72 72 65 59 51 47 42 42 38 39 37 35 35 34 36 36 32 36 35 35 40 44 42 42 45 44 40 35 34 33 27 21 16 12 10 5
4 20 7 2 33 25 34 48 22 36 24 55 74 74 74 70 62 54 52 47 46 41 39 41 39 40 42 39 39 37 35 36 39 41 41 42 43 42 36 33 26 27 30 24 19 17 13 14 14
10 7 9 3 36 37 30 32 25 40 52 61 71 74 75 71 59 51 47 45 41 40 44 43 41 40 36 35 38 37 37 38 40 39 41 44 42 30 30 25 26 29 25 19 25 24 15 11 10
5 15 18 15 23 21 21 24 32 33 61 75 75 73 79 71 59 52 50 49 43 39 37 41 38 32 30 37 37 38 37 34 34 38 39 40 29 23 26 23 22 22 18 12 15 15 11 9 16
27 10 13 10 9 10 34 10 26 48 67 73 70 74 67 68 62 55 49 48 41 38 35 34 30 29 31 32 33 38 37 36 31 32 30 27 26 23 21 19 16 18 19 20 12 13 10 1 6
9 9 7 8 14 20 8 7 16 48 51 65 66 63 68 69 66 55 51 45 40 36 30 32 29 34 28 32 31 34 36 34 28 28 26 24 21 22 18 16 15 20 17 12 8 7 3 5 2
12 3 4 5 14 18 6 4 10 37 47 40 54 59 67 60 58 57 54 48 39 33 31 34 30 33 30 32 33 32 32 30 22 26 31 23 24 20 15 14 12 14 12 10 12 9 3 2 6
7 5 8 7 11 8 13 4 8 38 55 56 21 58 67 69 63 60 58 54 44 34 32 38 31 30 29 29 34 33 33 29 28 26 29 24 27 20 16 18 16 12 11 11 8 6 1 4 6
1 4 6 8 7 7 11 8 19 26 43 39 33 36 57 73 74 68 63 55 45 35 31 36 39 30 29 27 38 30 32 30 28 29 29 28 30 25 25 19 16 14 9 12 10 3 11 3 2
7 4 7 8 5 7 7 8 3 4 18 56 57 18 46 53 67 73 69 60 48 39 35 33 27 34 33 24 27 24 28 28 27 25 26 31 31 31 29 24 19 17 12 11 7 3 6 5 5
5 8 10 10 16 18 22 2 8 4 20 47 56 28 14 53 76 74 70 63 52 43 36 30 28 32 35 27 31 28 27 24 26 31 25 23 29 32 28 25 23 19 16 15 12 6 5 2 3
6 16 17 24 8 9 3 2 11 8 10 43 67 52 17 47 73 77 72 66 54 44 38 30 33 30 35 31 31 27 24 23 22 24 23 22 28 30 33 28 26 21 18 22 17 7 6 4 6
16 10 15 12 9 11 1 9 9 21 19 30 50 65 32 14 62 85 79 71 55 44 41 34 41 37 37 36 26 27 23 22 22 24 24 26 30 25 24 31 25 17 15 23 19 9 5 8 9
16 17 20 12 6 3 16 12 8 25 28 34 50 52 44 9 47 60 70 74 63 52 50 41 47 45 41 45 33 25 26 26 29 28 26 29 29 23 24 34 24 18 16 25 21 15 7 3 8
10 10 7 7 3 10 10 9 5 19 22 39 54 76 64 24 21 41 57 71 73 60 54 48 48 51 46 51 41 31 27 25 24 27 26 29 30 26 28 30 25 22 20 24 23 18 14 10 5
18 18 11 11 10 6 2 7 6 9 23 29 44 56 56 37 14 26 32 62 73 67 56 54 49 52 50 50 40 33 26 32 26 23 28 31 26 23 24 25 25 25 29 24 27 25 23 20 14
9 8 12 13 2 7 7 6 10 17 21 35 37 37 38 46 24 30 35 46 70 75 67 57 49 48 49 51 41 32 25 25 25 30 26 26 29 27 26 22 21 24 28 31 28 27 25 26 24
16 13 5 7 11 7 3 6 10 17 22 24 24 32 27 27 24 32 50 59 54 76 71 66 52 46 50 54 45 36 31 26 19 32 28 29 26 26 26 21 20 20 24 28 30 27 28 26 27
8 4 12 11 5 10 6 7 7 9 19 21 27 29 26 28 24 32 46 54 70 71 71 66 49 47 51 54 45 39 35 32 27 32 32 27 25 22 26 26 29 31 26 27 25 25 25 28 26
1 2 6 10 5 7 9 2 17 22 20 32 31 33 26 24 19 24 22 66 59 62 74 58 46 45 52 50 46 41 39 37 36 37 35 29 24 25 16 16 18 26 28 29 23 22 21 23 23
Wind_Direction_850mb
130 142 167 6 13 20 63 159 139 112 152 147 153 141 145 105 153 182 144 150 158 150 145 145 141 140 137 136 133 130 132 131 126 114 116 114 113 115 115 116 115 116 119 117 116 115 120 117 114
154 162 26 17 50 76 316 128 136 143 149 147 131 109 57 83 116 137 145 151 155 147 145 141 144 146 143 141 144 140 135 134 131 129 119 115 115 117 113 115 117 122 128 126 123 116 116 114 110
152 69 16 39 53 353 122 100 111 124 142 145 105 89 66 78 135 140 148 151 153 149 145 143 143 142 144 145 150 151 147 140 136 132 128 124 121 123 117 114 119 127 128 126 119 113 117 127 121
163 45 14 51 284 12 128 125 120 114 118 140 113 82 74 147 135 149 147 149 151 146 144 143 141 141 136 138 135 141 142 143 136 138 134 128 126 126 123 120 121 133 136 129 120 111 100 102 122
152 160 190 216 209 89 116 139 139 131 120 133 116 96 100 147 142 143 145 149 151 146 146 146 143 142 142 143 138 138 137 139 142 142 135 134 134 130 126 126 124 130 139 135 122 109 106 106 110
246 177 218 148 182 143 130 138 118 96 108 105 107 112 106 144 144 147 149 150 151 147 147 144 140 137 139 143 138 137 134 139 142 143 139 142 142 134 121 122 127 128 140 140 128 115 105 104 108
3 28 345 210 121 116 133 129 129 122 116 116 130 101 134 152 147 148 152 153 150 148 145 141 138 140 139 143 136 133 134 136 135 142 143 143 142 134 125 125 127 134 144 143 131 120 109 106 99
84 74 1 348 130 105 122 103 143 120 106 127 119 137 152 157 153 154 155 155 153 148 142 141 141 138 134 132 135 135 132 135 136 139 143 142 136 132 131 128 128 133 142 146 141 127 125 114 101
169 110 118 274 127 62 99 121 137 118 128 131 137 148 149 155 154 154 158 160 158 153 146 142 136 139 136 135 133 132 127 131 133 141 143 142 135 133 128 123 121 122 129 139 148 150 147 122 98
166 146 177 220 133 151 169 139 134 129 135 106 119 140 154 157 156 158 164 165 165 155 151 144 143 141 137 136 131 128 125 124 126 139 140 137 134 131 127 122 122 125 129 133 138 145 157 153 49
183 198 180 200 169 165 167 153 146 143 136 144 147 152 162 162 164 157 157 154 157 148 149 146 146 144 139 138 136 139 126 119 125 129 135 138 136 134 133 127 123 128 129 130 135 141 164 185 203
154 241 180 263 193 169 169 154 153 137 157 154 160 165 164 169 171 164 159 152 152 152 151 149 148 144 143 137 138 132 135 127 125 132 136 137 137 131 132 128 124 126 124 118 108 103 115 99 74
235 193 154 43 145 164 150 161 132 157 166 159 162 167 171 174 173 169 162 156 153 154 154 150 145 145 149 153 146 140 134 124 127 134 139 140 137 132 132 128 124 138 127 103 113 107 112 89 72
216 153 119 126 122 122 104 128 160 177 171 156 161 169 177 179 178 172 173 169 165 162 160 158 153 160 152 150 146 149 141 139 134 138 135 138 139 146 149 131 123 134 136 125 122 126 112 80 59
94 75 92 100 111 107 128 118 164 157 156 159 167 171 177 185 183 184 176 175 173 167 160 160 166 167 175 160 155 159 148 145 140 144 148 152 150 149 143 141 120 134 134 137 138 143 145 151 63
77 77 149 173 161 151 89 154 193 167 168 166 172 173 184 186 189 189 185 179 176 167 166 164 177 186 173 169 171 164 160 158 165 173 158 161 159 159 150 139 119 141 138 128 125 173 179 156 132
2 174 221 286 202 154 90 119 213 182 170 185 168 178 184 180 193 192 188 183 174 168 164 171 162 156 167 173 172 170 173 171 173 168 169 184 181 166 165 155 150 149 141 125 123 121 106 244 81
147 150 225 223 195 150 116 177 193 164 175 185 152 173 182 184 188 196 192 186 173 167 166 169 160 162 160 173 184 192 180 186 190 172 184 181 188 189 178 170 163 165 165 154 132 105 115 100 344
229 232 290 51 146 119 141 142 182 183 176 191 189 142 174 186 191 198 196 190 178 168 162 177 171 174 172 166 170 172 182 188 192 193 200 196 203 202 192 190 198 201 191 177 176 91 128 105 54
198 312 72 51 175 121 117 125 148 172 170 181 210 169 181 178 186 196 196 189 187 173 163 172 175 178 175 171 169 168 184 191 189 196 201 204 201 203 202 209 206 200 191 199 184 147 142 68 67
215 202 175 142 116 64 121 59 172 236 162 178 199 206 178 183 183 189 191 188 187 184 178 186 182 178 179 180 179 170 174 181 191 191 188 187 196 201 208 209 206 200 202 200 200 156 163 95 12
263 201 202 152 148 161 255 136 247 186 181 179 197 208 187 187 193 188 189 191 192 195 190 196 187 189 190 184 186 184 183 191 191 191 178 193 192 199 208 206 194 208 207 197 194 174 146 21 36
232 234 225 128 100 110 352 92 277 158 198 193 187 202 216 180 197 190 193 193 193 198 200 201 191 195 198 197 194 194 215 212 190 175 188 187 173 189 202 192 198 203 200 182 190 189 132 44 46
117 70 49 53 66 14 184 174 210 189 190 189 190 206 213 185 193 202 199 195 195 200 204 202 197 199 206 204 201 199 207 203 196 188 180 179 182 189 188 195 202 202 199 190 198 203 188 140 82
112 85 39 50 15 224 163 135 325 200 176 191 183 200 204 195 180 192 202 202 201 199 207 208 204 205 208 207 209 205 201 213 205 206 195 189 191 194 197 197 204 211 206 202 211 218 219 214 205
183 161 151 168 190 202 184 218 331 63 105 154 187 194 195 217 252 200 205 210 207 206 209 207 207 209 212 208 210 209 214 221 222 205 204 203 202 204 201 203 210 211 214 219 228 233 235 227 226
192 160 194 109 112 111 169 136 118 103 95 102 112 146 186 221 240 227 236 212 210 217 213 210 208 209 215 211 213 214 217 208 224 205 205 208 207 210 210 210 205 211 218 224 231 235 236 234 232
157 169 99 29 151 167 239 205 161 154 133 131 116 136 150 183 232 254 237 208 226 224 217 214 208 210 213 214 217 215 213 212 216 209 217 208 207 215 216 224 232 225 223 219 225 230 235 238 238
349 111 53 111 113 145 155 238 337 154 136 130 134 139 157 174 195 196 212 217 225 226 218 217 206 211 212 214 220 225 218 213 208 208 213 216 224 224 232 244 250 245 246 227 222 225 237 243 243
282 58 124 129 174 74 115 313 332 133 140 127 129 132 154 193 192 219 195 189 199 212 216 211 204 210 212 212 224 231 236 230 225 217 220 228 232 233 240 246 236 236 240 227 228 222 231 243 244